EW8849 Weather Reports


Display with metric or nautical units.
time (UTC)temp
F
wind
direction
speed
MPH
gust
MPH
rain 1hr
in
rain 24hr
in
rain mn
in
humidity
%
barometer
mb
20210301093614 36 270 0.0 0.0 0.00 0.00 0.00 98 1020.0
20210301092108 36 293 0.0 0.0 0.00 0.00 0.00 97 1020.0
20210301090118 36 45 0.0 0.0 0.00 0.00 0.00 96 1020.0
20210301084608 36 113 0.0 0.0 0.00 0.00 0.00 96 1020.0
20210301083110 36 338 0.0 0.0 0.00 0.00 0.00 96 1020.3
20210301082110 37 338 0.0 0.0 0.00 0.00 0.00 96 1020.3
20210301080607 37 90 0.0 0.0 0.00 0.00 0.00 96 1020.7
20210301075108 37 90 0.0 0.0 0.00 0.00 0.04 95 1020.7
20210301073610 38 45 0.0 0.0 0.00 0.00 0.04 97 1020.7
20210301072126 39 90 0.0 0.0 0.00 0.00 0.04 96 1021.0
20210301070607 40 45 0.0 0.0 0.00 0.00 0.04 96 1021.0
20210301065108 40 113 0.0 0.0 0.00 0.00 0.04 96 1021.0
20210301063611 40 113 0.0 0.0 0.00 0.00 0.04 96 1021.3
20210301062755 41 113 0.0 0.0 0.00 0.00 0.04 96 1021.7
20210301061109 41 90 1.0 1.0 0.00 0.00 0.04 96 1021.7
20210301055111 41 113 1.0 1.0 0.00 0.00 0.04 96 1022.0
20210301053610 41 90 0.0 0.0 0.00 0.00 0.04 93 1022.0
20210301052107 42 90 0.0 0.0 0.00 0.00 0.04 93 1022.0
20210301050615 42 90 0.0 0.0 0.00 0.00 0.04 91 1022.0
20210301045349 43 90 0.0 0.0 0.00 0.00 0.04 91 1022.0
20210301043611 44 338 0.0 0.0 0.00 0.00 0.04 89 1022.4
20210301042708 45 338 0.0 0.0 0.00 0.00 0.04 89 1022.4
20210301041109 45 90 0.0 0.0 0.00 0.00 0.04 86 1022.4
20210301035609 46 90 0.0 0.0 0.00 0.00 0.04 85 1022.4
20210301034109 46 90 1.0 1.0 0.00 0.00 0.04 84 1022.4
20210301032713 47 113 0.0 0.0 0.00 0.00 0.04 84 1022.7
20210301031108 47 113 0.0 0.0 0.00 0.00 0.04 83 1022.7
20210301025613 47 135 0.0 0.0 0.00 0.00 0.04 82 1023.0
20210301024114 47 90 0.0 0.0 0.00 0.00 0.04 80 1023.0
20210301022823 48 113 0.0 0.0 0.00 0.00 0.04 79 1023.0
20210301021109 48 90 0.0 0.0 0.00 0.00 0.04 78 1023.4
20210301015608 48 68 0.0 0.0 0.00 0.00 0.04 76 1023.4
20210301014108 48 338 0.0 0.0 0.00 0.00 0.04 76 1023.7
20210301012710 49 203 0.0 0.0 0.00 0.00 0.04 75 1023.7
20210301011130 49 135 0.0 0.0 0.00 0.00 0.04 74 1023.7
20210301005611 50 135 0.0 0.0 0.00 0.00 0.04 73 1024.0
20210301004115 50 338 0.0 0.0 0.00 0.00 0.04 73 1024.0
20210301002803 50 270 2.0 2.0 0.00 0.00 0.04 72 1024.4
20210301001109 50 270 3.0 3.0 0.00 0.00 0.04 71 1024.4
20210228235609 50 270 2.0 2.0 0.00 0.00 0.04 71 1024.7
20210228234107 51 90 0.0 0.0 0.00 0.00 0.04 71 1024.7
20210228232741 51 180 2.0 2.0 0.00 0.00 0.04 70 1024.7
20210228231108 52 113 1.0 1.0 0.00 0.00 0.04 69 1025.1
20210228225608 51 203 3.0 3.0 0.00 0.00 0.04 70 1025.1
20210228224110 51 248 3.0 3.0 0.00 0.00 0.04 71 1025.4
20210228222657 51 293 1.0 1.0 0.00 0.00 0.04 71 1025.4
20210228221610 50 225 2.0 2.0 0.00 0.00 0.04 73 1025.4
20210228220109 50 248 1.0 1.0 0.00 0.00 0.04 75 1025.4
20210228214609 50 270 2.0 2.0 0.00 0.00 0.04 74 1025.7
20210228213109 50 225 2.0 2.0 0.00 0.00 0.04 73 1025.7
20210228211610 49 225 1.0 1.0 0.00 0.00 0.04 75 1026.1
20210228210609 49 203 1.0 1.0 0.00 0.00 0.04 76 1026.1
20210228205311 50 180 1.0 1.0 0.00 0.00 0.04 77 1026.4
20210228203614 49 90 3.0 3.0 0.00 0.00 0.04 79 1026.8
20210228202107 48 225 5.0 5.0 0.00 0.00 0.04 79 1026.8
20210228200611 49 270 4.0 4.0 0.00 0.00 0.04 79 1026.8
20210228195108 48 180 1.0 1.0 0.00 0.00 0.04 83 1026.8
20210228193607 47 293 1.0 1.0 0.00 0.00 0.04 84 1027.1
20210228192111 46 45 0.0 0.0 0.00 0.00 0.04 87 1027.1
20210228190615 46 113 1.0 1.0 0.00 0.00 0.04 89 1027.1
20210228185609 46 113 1.0 1.0 0.00 0.00 0.04 89 1027.1
20210228184108 45 90 0.0 0.0 0.00 0.00 0.04 91 1027.1
20210228182759 45 135 0.0 0.0 0.00 0.00 0.04 93 1027.1
20210228181116 44 90 2.0 2.0 0.00 0.00 0.04 93 1027.4
20210228180108 44 113 0.0 0.0 0.00 0.00 0.04 93 1027.4
20210228174611 43 248 1.0 1.0 0.00 0.00 0.04 94 1027.4
20210228173108 43 90 0.0 0.0 0.00 0.00 0.04 97 1027.4
20210228171609 42 90 0.0 0.0 0.00 0.00 0.04 97 1027.4
20210228170610 42 90 0.0 0.0 0.00 0.00 0.04 97 1027.4
20210228165111 42 90 1.0 1.0 0.00 0.00 0.04 97 1027.1
20210228163610 41 113 1.0 1.0 0.00 0.00 0.04 98 1027.4
20210228161609 41 225 0.0 0.0 0.00 0.00 0.04 98 1027.1
20210228160607 41 45 0.0 0.0 0.00 0.00 0.04 98 1027.1
20210228155107 40 158 0.0 0.0 0.00 0.00 0.04 98 1027.1
20210228153607 40 248 0.0 0.0 0.00 0.00 0.04 98 1027.1
20210228152113 40 45 0.0 0.0 0.00 0.00 0.04 98 1026.8
20210228150609 40 158 0.0 0.0 0.00 0.00 0.04 98 1026.8
20210228145610 40 180 0.0 0.0 0.00 0.00 0.04 97 1026.8
20210228144322 40 203 0.0 0.0 0.00 0.00 0.04 98 1026.8
20210228142914 40 225 1.0 1.0 0.00 0.00 0.04 99 1026.8
20210228141607 40 135 0.0 0.0 0.00 0.00 0.04 99 1026.8
20210228140113 39 113 0.0 0.0 0.00 0.00 0.04 99 1026.8
20210228134608 39 90 0.0 0.0 0.00 0.00 0.04 99 1026.8
20210228133608 39 45 0.0 0.0 0.00 0.00 0.04 99 1026.4
20210228132111 39 68 0.0 0.0 0.00 0.00 0.04 99 1026.4
20210228130607 39 113 0.0 0.0 0.00 0.00 0.04 99 1026.4